SJX546 RCTP-VMMC

Flight info

Callsign SJX546
Flight time N/A
Altitude 38000
Route CHALI1A CHALI T3 MKG A1 ELATO J101 NEDLE/N0405F220 J101 SMT SMT4A
Aircraft A339/H-SADE1E2E3GHIJ3J5M1P2RWXY/LB2D1

Departure

Time N/A
Airport Taiwan Taoyuan International Airport (RCTP)

Arrival

Time 2026-04-24 22:15
Airport Macau International Airport (VMMC)
Time Latitude Longitude Altitude Speed Heading
2026-04-24 21:30 22.57209 117.90066 38024 ft 395 kts 239°
2026-04-24 21:30 22.54242 117.85061 38008 ft 395 kts 239°
2026-04-24 21:31 22.51273 117.80067 38008 ft 395 kts 239°
2026-04-24 21:31 22.48298 117.75070 38020 ft 395 kts 239°
2026-04-24 21:32 22.45320 117.70074 37990 ft 395 kts 239°
2026-04-24 21:32 22.42321 117.65044 38015 ft 401 kts 238°
2026-04-24 21:33 22.39301 117.59987 38015 ft 400 kts 238°
2026-04-24 21:33 22.36466 117.54817 38015 ft 399 kts 246°
2026-04-24 21:34 22.34922 117.49098 38008 ft 402 kts 259°
2026-04-24 21:34 22.34877 117.43074 38017 ft 403 kts 273°
2026-04-24 21:35 22.36079 117.37106 38012 ft 408 kts 278°
2026-04-24 21:35 22.37353 117.31130 38014 ft 408 kts 277°
2026-04-24 21:36 22.38614 117.25156 38015 ft 408 kts 277°
2026-04-24 21:36 22.39876 117.19172 38014 ft 408 kts 277°
2026-04-24 21:37 22.41132 117.13211 38020 ft 405 kts 277°
2026-04-24 21:37 22.42379 117.07287 38021 ft 404 kts 277°
2026-04-24 21:38 22.43621 117.01359 38020 ft 404 kts 277°
2026-04-24 21:38 22.44864 116.95429 38024 ft 404 kts 277°
2026-04-24 21:39 22.46096 116.89536 38021 ft 404 kts 277°
2026-04-24 21:39 22.47333 116.83608 38029 ft 404 kts 277°
2026-04-24 21:40 22.48566 116.77690 38022 ft 403 kts 277°
2026-04-24 21:40 22.49776 116.71774 38021 ft 401 kts 275°
2026-04-24 21:41 22.50397 116.66207 38025 ft 397 kts 269°
2026-04-24 21:41 22.50329 116.60326 38023 ft 394 kts 263°
2026-04-24 21:42 22.49988 116.54411 38035 ft 394 kts 264°
2026-04-24 21:42 22.49666 116.48503 38030 ft 393 kts 264°
2026-04-24 21:43 22.49339 116.42594 38023 ft 393 kts 264°
2026-04-24 21:43 22.49008 116.36703 38019 ft 393 kts 264°
2026-04-24 21:44 22.48673 116.30801 38025 ft 393 kts 264°
2026-04-24 21:44 22.48337 116.24906 38033 ft 393 kts 264°
2026-04-24 21:45 22.48000 116.19053 38014 ft 392 kts 264°
2026-04-24 21:45 22.47661 116.13173 38015 ft 392 kts 264°
2026-04-24 21:46 22.47319 116.07289 38015 ft 392 kts 264°
2026-04-24 21:46 22.46975 116.01409 38014 ft 392 kts 264°
2026-04-24 21:47 22.46629 115.95530 38008 ft 392 kts 264°
2026-04-24 21:47 22.46276 115.89608 38018 ft 394 kts 264°
2026-04-24 21:48 22.45925 115.83695 38018 ft 394 kts 264°
2026-04-24 21:48 22.45570 115.77773 38019 ft 395 kts 264°
2026-04-24 21:49 22.45237 115.72245 38017 ft 394 kts 264°
2026-04-24 21:49 22.44876 115.66297 38017 ft 394 kts 264°
2026-04-24 21:50 22.44514 115.60389 38019 ft 394 kts 264°
2026-04-24 21:50 22.44153 115.54515 38018 ft 394 kts 264°
2026-04-24 21:51 22.43828 115.49246 38021 ft 392 kts 264°
2026-04-24 21:51 22.43464 115.43392 38021 ft 395 kts 264°
2026-04-24 21:52 22.43090 115.37418 38024 ft 401 kts 264°
2026-04-24 21:52 22.42631 115.30126 38025 ft 405 kts 264°
2026-04-24 21:53 22.41079 115.05816 38065 ft 407 kts 264°
2026-04-24 21:53 22.39484 114.81429 37992 ft 407 kts 264°
2026-04-24 21:54 22.38861 114.72040 38025 ft 406 kts 264°
2026-04-24 21:54 22.38454 114.65962 38024 ft 406 kts 264°
2026-04-24 21:55 22.38045 114.59885 37958 ft 399 kts 264°
2026-04-24 21:55 22.37846 114.56930 37663 ft 392 kts 264°
2026-04-24 21:55 22.37648 114.54000 36928 ft 392 kts 264°
2026-04-24 21:55 22.37445 114.51038 36052 ft 397 kts 264°
2026-04-24 21:56 22.37241 114.48044 35087 ft 402 kts 264°
2026-04-24 21:56 22.37032 114.45008 34093 ft 407 kts 264°
2026-04-24 21:56 22.36821 114.41937 32935 ft 413 kts 264°
2026-04-24 21:56 22.36605 114.38822 31717 ft 419 kts 265°
2026-04-24 21:57 22.36384 114.35651 30613 ft 425 kts 265°
2026-04-24 21:57 22.36162 114.32469 29780 ft 424 kts 265°
2026-04-24 21:57 22.35943 114.29304 29003 ft 420 kts 265°
2026-04-24 21:57 22.35730 114.26216 28222 ft 416 kts 265°
2026-04-24 21:58 22.35513 114.23108 27434 ft 413 kts 265°
2026-04-24 21:58 22.35298 114.20028 26670 ft 410 kts 265°
2026-04-24 21:58 22.35084 114.16962 25916 ft 407 kts 265°
2026-04-24 21:58 22.34870 114.13908 25155 ft 406 kts 266°
2026-04-24 21:59 22.34656 114.10875 24423 ft 404 kts 266°
2026-04-24 21:59 22.34442 114.07855 23707 ft 402 kts 266°
2026-04-24 21:59 22.34228 114.04857 22858 ft 400 kts 266°
2026-04-24 21:59 22.34015 114.01873 22130 ft 395 kts 266°
2026-04-24 22:00 22.33770 113.98928 21372 ft 391 kts 264°
2026-04-24 22:00 22.33259 113.96060 20628 ft 388 kts 258°
2026-04-24 22:00 22.32419 113.93298 19834 ft 389 kts 248°
2026-04-24 22:00 22.30954 113.90851 19089 ft 391 kts 233°
2026-04-24 22:01 22.28897 113.88921 18458 ft 395 kts 217°
2026-04-24 22:01 22.26452 113.87538 18157 ft 399 kts 210°
2026-04-24 22:01 22.23982 113.86161 18036 ft 398 kts 213°
2026-04-24 22:01 22.21635 113.84598 18014 ft 396 kts 217°
2026-04-24 22:02 22.19387 113.82869 18024 ft 397 kts 220°
2026-04-24 22:02 22.17198 113.81049 18021 ft 396 kts 222°
2026-04-24 22:02 22.15044 113.79196 18020 ft 396 kts 222°
2026-04-24 22:02 22.12895 113.77330 18021 ft 396 kts 223°
2026-04-24 22:03 22.10778 113.75492 18022 ft 396 kts 223°
2026-04-24 22:03 22.08632 113.73634 18020 ft 395 kts 222°
2026-04-24 22:03 22.06507 113.71801 17817 ft 389 kts 222°
2026-04-24 22:03 22.04402 113.69986 17085 ft 386 kts 222°
2026-04-24 22:04 22.02315 113.68187 16222 ft 381 kts 222°
2026-04-24 22:04 22.00272 113.66415 15254 ft 374 kts 221°
2026-04-24 22:04 21.98395 113.64534 14191 ft 365 kts 233°
2026-04-24 22:04 21.97144 113.62213 13086 ft 355 kts 250°
2026-04-24 22:05 21.96090 113.59837 11871 ft 353 kts 237°
2026-04-24 22:05 21.94361 113.57998 11052 ft 351 kts 216°
2026-04-24 22:05 21.92104 113.56944 10593 ft 357 kts 195°
2026-04-24 22:05 21.89632 113.56730 10216 ft 355 kts 182°
2026-04-24 22:06 21.87202 113.57105 9498 ft 354 kts 162°
2026-04-24 22:06 21.85128 113.58372 9222 ft 332 kts 140°
2026-04-24 22:06 21.83746 113.60231 8970 ft 307 kts 117°
2026-04-24 22:06 21.83013 113.62276 8749 ft 281 kts 110°
2026-04-24 22:07 21.82528 113.64213 8514 ft 258 kts 93°
2026-04-24 22:07 21.82789 113.66027 8339 ft 236 kts 65°
2026-04-24 22:07 21.83615 113.67436 8213 ft 214 kts 44°
2026-04-24 22:07 21.84796 113.68350 7703 ft 210 kts 20°
2026-04-24 22:08 21.86199 113.68646 7160 ft 208 kts 354°
2026-04-24 22:08 21.87588 113.68326 6688 ft 203 kts 336°
2026-04-24 22:08 21.88922 113.67857 6218 ft 203 kts 340°
2026-04-24 22:08 21.89835 113.67593 5885 ft 203 kts 342°
2026-04-24 22:09 21.91188 113.67253 5622 ft 193 kts 342°
2026-04-24 22:09 21.92462 113.66935 5243 ft 189 kts 341°
2026-04-24 22:09 21.93754 113.66533 4712 ft 194 kts 341°
2026-04-24 22:09 21.95045 113.66116 4212 ft 195 kts 338°
2026-04-24 22:10 21.96333 113.65680 3772 ft 193 kts 341°
2026-04-24 22:10 21.97615 113.65293 3370 ft 191 kts 341°
2026-04-24 22:10 21.98879 113.64867 2946 ft 189 kts 340°
2026-04-24 22:10 22.00106 113.64429 2622 ft 183 kts 338°
2026-04-24 22:11 22.01274 113.63997 2368 ft 167 kts 339°
2026-04-24 22:11 22.02278 113.63630 2297 ft 153 kts 340°
2026-04-24 22:11 22.03308 113.63234 2157 ft 158 kts 338°
2026-04-24 22:11 22.04312 113.62825 1931 ft 155 kts 336°
2026-04-24 22:12 22.05279 113.62370 1630 ft 151 kts 334°
2026-04-24 22:12 22.06238 113.61950 1338 ft 146 kts 342°
2026-04-24 22:12 22.07247 113.61698 1139 ft 148 kts 346°
2026-04-24 22:12 22.08214 113.61435 1034 ft 145 kts 344°
2026-04-24 22:13 22.09207 113.61134 1000 ft 147 kts 343°
2026-04-24 22:13 22.10166 113.60840 846 ft 146 kts 342°
2026-04-24 22:13 22.11103 113.60490 587 ft 141 kts 340°
2026-04-24 22:13 22.12063 113.60143 422 ft 149 kts 341°
2026-04-24 22:14 22.12998 113.59828 226 ft 132 kts 341°
2026-04-24 22:14 22.13884 113.59522 64 ft 134 kts 341°
2026-04-24 22:14 22.14722 113.59214 39 ft 116 kts 340°
2026-04-24 22:14 22.15249 113.59025 35 ft 52 kts 341°
2026-04-24 22:15 22.15619 113.58902 33 ft 55 kts 344°
2026-04-24 22:15 22.15834 113.58820 33 ft 52 kts 339°
2026-04-24 22:15 22.16146 113.58699 35 ft 36 kts 328°
2026-04-24 22:15 22.16230 113.58465 35 ft 34 kts 283°
2026-04-24 22:16 22.16264 113.58293 34 ft 8 kts 269°
2026-04-24 22:16 22.16226 113.58200 34 ft 18 kts 249°
2026-04-24 22:16 22.16179 113.58060 34 ft 21 kts 250°
2026-04-24 22:16 22.16127 113.57904 34 ft 23 kts 250°
2026-04-24 22:17 22.16049 113.57766 35 ft 21 kts 212°
2026-04-24 22:17 22.15913 113.57707 35 ft 17 kts 221°